STARLINK-5669 (55459 NORAD) Tracking and Keplerian Element Data

This shows tracking and keplerian element data for the satellite.

Feedback or suggestion? Click here.




ElementValue
Catalog55459
NameSTARLINK-5669
Epoch Orbit831
Epoch Day85.25001157
Epoch Year2023
RAAN76.7551
Inclination43.0007
Eccentricity0.0001294
Argument of Perigee268.715
Mean Anonmoly144.9786
Mean Motion15.48911493
Decay Rate-0.00025776
L11 55459U 23015L 23085.25001157 -.00025776 00000+0 -46158-3 0 9993
L22 55459 43.0007 76.7551 0001294 268.7150 144.9786 15.48911493 8316



Live tracking and technical data element details for STARLINK-5669 (NORAD 55459). STARLINK-5669 can be tracked NOW for your location showing map with azimuth and elevation plus other details from your city location.







IsCatalogInMostPopularTable: catalog: 55459, numindb: -1

Insert: records affected: 1


GetName: 55459 STARLINK-5669

Hit Count: inserted at: Tue, 28 Mar 2023 03:25:27 GMT